Starlink 2095

operational
NORAD ID: 47679 Int'l Des: 2021-012 Owner: SPXS Country: US Constellation: starlink
LEOCIRCULAR

About Starlink 2095

Description loading...

Live Position

Loading 3D Globe...

Upcoming Passes

Altitude History

Altitude vs Time

uPlot chart will show altitude changes over time

Two-Line Element Set

1 47679U 21012BM 25308.08974126 .00071472 00000-0 17386-2 0 9992
2 47679 53.0400 235.2026 0004789 123.5639 236.5823 15.40326132261638
Epoch: Nov 4, 2025 • Age: 7 hours

Current Status

Altitude 460.1 km
Velocity 7.64 km/s
Sub-Earth Point -41.84°S, 89.09°W
Launch Date Feb 16, 2021
Age 4.7 years
Type internet

Technical Details

Classification Payload
Mass 260.00 kg
Dry Mass 248.00 kg
Total Mass 260.00 kg
Length 0.20 m
Diameter 2.80 m
Span 9.00 m
Shape Box + pan
Manufacturer SPXS
Bus Type Starlink
Phase Status In Orbit
Owner/State SPXS/US

Large Constellations

Loading constellations...